Voltar ao catálogo

CZ-3 DEB

LostHEO
NORAD 29445·DEBRIS·🇨🇳 China

Lançado Apr 8, 1984 de Xichang Satellite Launch Center

Loading…

Próximas Passagens (próximas 24 horas)

TLE

ObsoletoSource: Space-Track

Época: Jul 20, 2026, 06:34 UTC

1 29445U 84035D   26201.27369565  .00015297  00000-0  23173-1 0  9999
2 29445  29.9473 173.3239 6900585 265.0713  19.7640  2.69699967 40234

Acompanhe CZ-3 DEB em tempo real com AllMySat

Download on the App Store